Time,TemperatureF,DewpointF,PressureIn,WindDirection,WindDirectionDegrees,WindSpeedMPH,WindSpeedGustMPH,Humidity,HourlyPrecipIn,Conditions,Clouds,dailyrainin,SoftwareType,DateUTC
2013-11-14 00:09:00,41.8,35.8,30.36,West,275,0.0,5.0,79,0.00,,,0.00,Weather View 32 v70,2013-11-14 05:09:00,
2013-11-14 00:19:00,41.9,35.9,30.36,West,267,3.0,6.0,79,0.00,,,0.00,Weather View 32 v70,2013-11-14 05:19:00,
2013-11-14 00:21:00,41.9,35.9,30.36,West,267,3.0,6.0,79,0.00,,,0.00,Weather View 32 v70,2013-11-14 05:21:00,
2013-11-14 00:29:00,41.8,35.8,30.36,West,275,2.0,6.0,79,0.00,,,0.00,Weather View 32 v70,2013-11-14 05:29:00,
2013-11-14 00:39:00,41.8,35.8,30.35,West,278,3.0,6.0,79,0.00,,,0.00,Weather View 32 v70,2013-11-14 05:39:00,
2013-11-14 00:49:00,41.7,35.7,30.35,West,264,1.0,6.0,79,0.00,,,0.00,Weather View 32 v70,2013-11-14 05:49:00,
2013-11-14 00:59:00,41.8,36.1,30.35,West,277,0.0,6.0,80,0.00,,,0.00,Weather View 32 v70,2013-11-14 05:59:00,
2013-11-14 01:09:00,41.6,35.9,30.34,North,0,3.0,7.0,80,0.00,,,0.00,Weather View 32 v70,2013-11-14 06:09:00,
2013-11-14 01:19:00,41.7,36.3,30.34,WSW,250,2.0,7.0,81,0.00,,,0.00,Weather View 32 v70,2013-11-14 06:19:00,
2013-11-14 01:21:00,41.7,36.3,30.34,WSW,250,2.0,7.0,81,0.00,,,0.00,Weather View 32 v70,2013-11-14 06:21:00,
2013-11-14 01:29:00,41.6,36.2,30.34,West,275,0.0,7.0,81,0.00,,,0.00,Weather View 32 v70,2013-11-14 06:29:00,
2013-11-14 01:39:00,41.6,36.5,30.33,West,277,2.0,7.0,82,0.00,,,0.00,Weather View 32 v70,2013-11-14 06:39:00,
2013-11-14 01:49:00,41.6,36.2,30.33,West,269,2.0,7.0,81,0.00,,,0.00,Weather View 32 v70,2013-11-14 06:49:00,
2013-11-14 01:59:00,41.6,36.8,30.33,West,270,2.0,7.0,83,0.00,,,0.00,Weather View 32 v70,2013-11-14 06:59:00,
2013-11-14 02:09:00,41.4,36.3,30.33,WNW,296,1.0,5.0,82,0.00,,,0.00,Weather View 32 v70,2013-11-14 07:09:00,
2013-11-14 02:19:00,41.3,36.5,30.33,West,262,1.0,5.0,83,0.00,,,0.00,Weather View 32 v70,2013-11-14 07:19:00,
2013-11-14 02:29:00,41.2,36.4,30.33,WSW,257,3.0,5.0,83,0.00,,,0.00,Weather View 32 v70,2013-11-14 07:29:00,
2013-11-14 02:39:00,41.2,36.7,30.33,West,263,2.0,5.0,84,0.00,,,0.00,Weather View 32 v70,2013-11-14 07:39:00,
2013-11-14 02:49:00,41.0,36.5,30.33,West,269,0.0,5.0,84,0.00,,,0.00,Weather View 32 v70,2013-11-14 07:49:00,
2013-11-14 02:59:00,40.9,36.4,30.32,West,281,1.0,5.0,84,0.00,,,0.00,Weather View 32 v70,2013-11-14 07:59:00,
2013-11-14 03:09:00,41.0,36.8,30.32,WNW,291,1.0,5.0,85,0.00,,,0.00,Weather View 32 v70,2013-11-14 08:09:00,
2013-11-14 03:19:00,40.9,36.7,30.32,West,275,1.0,5.0,85,0.00,,,0.00,Weather View 32 v70,2013-11-14 08:19:00,
2013-11-14 03:22:00,40.9,36.7,30.32,West,275,1.0,5.0,85,0.00,,,0.00,Weather View 32 v70,2013-11-14 08:22:00,
2013-11-14 03:29:00,40.8,36.9,30.32,West,260,2.0,5.0,86,0.00,,,0.00,Weather View 32 v70,2013-11-14 08:29:00,
2013-11-14 03:39:00,40.5,36.6,30.32,West,264,0.0,5.0,86,0.00,,,0.00,Weather View 32 v70,2013-11-14 08:39:00,
2013-11-14 03:49:00,40.4,36.5,30.32,West,267,2.0,5.0,86,0.00,,,0.00,Weather View 32 v70,2013-11-14 08:49:00,
2013-11-14 03:59:00,40.5,36.9,30.31,West,271,2.0,5.0,87,0.00,,,0.00,Weather View 32 v70,2013-11-14 08:59:00,
2013-11-14 04:09:00,40.5,36.9,30.32,West,275,2.0,5.0,87,0.00,,,0.00,Weather View 32 v70,2013-11-14 09:09:00,
2013-11-14 04:19:00,40.5,36.9,30.32,West,272,1.0,5.0,87,0.00,,,0.00,Weather View 32 v70,2013-11-14 09:19:00,
2013-11-14 04:23:00,40.5,36.9,30.32,West,272,1.0,5.0,87,0.00,,,0.00,Weather View 32 v70,2013-11-14 09:23:00,
2013-11-14 04:29:00,40.5,36.9,30.32,West,273,4.0,7.0,87,0.00,,,0.00,Weather View 32 v70,2013-11-14 09:29:00,
2013-11-14 04:39:00,40.5,36.9,30.31,West,275,3.0,7.0,87,0.00,,,0.00,Weather View 32 v70,2013-11-14 09:39:00,
2013-11-14 04:49:00,40.7,37.1,30.31,West,267,2.0,7.0,87,0.00,,,0.00,Weather View 32 v70,2013-11-14 09:49:00,
2013-11-14 04:59:00,40.8,37.5,30.31,West,278,0.0,7.0,88,0.00,,,0.00,Weather View 32 v70,2013-11-14 09:59:00,
2013-11-14 05:09:00,40.8,37.5,30.31,West,259,3.0,7.0,88,0.00,,,0.00,Weather View 32 v70,2013-11-14 10:09:00,
2013-11-14 05:19:00,40.9,37.6,30.32,West,281,2.0,7.0,88,0.00,,,0.00,Weather View 32 v70,2013-11-14 10:19:00,
2013-11-14 05:23:00,40.9,37.6,30.32,West,281,2.0,7.0,88,0.00,,,0.00,Weather View 32 v70,2013-11-14 10:23:00,
2013-11-14 05:29:00,41.0,37.7,30.32,WNW,284,1.0,6.0,88,0.00,,,0.00,Weather View 32 v70,2013-11-14 10:29:00,
2013-11-14 05:39:00,41.0,38.0,30.31,WNW,286,1.0,6.0,89,0.00,,,0.00,Weather View 32 v70,2013-11-14 10:39:00,
2013-11-14 05:49:00,41.0,38.0,30.32,WSW,257,0.0,6.0,89,0.00,,,0.00,Weather View 32 v70,2013-11-14 10:49:00,
2013-11-14 05:59:00,41.0,38.0,30.33,WSW,250,0.0,6.0,89,0.00,,,0.00,Weather View 32 v70,2013-11-14 10:59:00,
2013-11-14 06:09:00,40.9,37.9,30.33,WNW,285,1.0,5.0,89,0.00,,,0.00,Weather View 32 v70,2013-11-14 11:09:00,
2013-11-14 06:19:00,41.0,38.3,30.33,NW,304,0.0,5.0,90,0.00,,,0.00,Weather View 32 v70,2013-11-14 11:19:00,
2013-11-14 06:24:00,41.0,38.3,30.33,NW,304,0.0,5.0,90,0.00,,,0.00,Weather View 32 v70,2013-11-14 11:24:00,
2013-11-14 06:29:00,41.0,38.3,30.33,West,261,0.0,5.0,90,0.00,,,0.00,Weather View 32 v70,2013-11-14 11:29:00,
2013-11-14 06:39:00,41.0,38.3,30.33,WNW,299,0.0,5.0,90,0.00,,,0.00,Weather View 32 v70,2013-11-14 11:39:00,
2013-11-14 06:49:00,40.9,38.2,30.33,WNW,288,0.0,5.0,90,0.00,,,0.00,Weather View 32 v70,2013-11-14 11:49:00,
2013-11-14 06:59:00,40.9,38.2,30.33,WNW,294,0.0,5.0,90,0.00,,,0.00,Weather View 32 v70,2013-11-14 11:59:00,
2013-11-14 07:09:00,41.0,38.3,30.33,West,281,0.0,5.0,90,0.00,,,0.00,Weather View 32 v70,2013-11-14 12:09:00,
2013-11-14 07:19:00,41.3,38.6,30.34,West,277,0.0,5.0,90,0.00,,,0.00,Weather View 32 v70,2013-11-14 12:19:00,
2013-11-14 07:24:00,41.3,38.6,30.34,West,277,0.0,5.0,90,0.00,,,0.00,Weather View 32 v70,2013-11-14 12:24:00,
2013-11-14 07:29:00,41.8,39.1,30.34,WNW,290,1.0,5.0,90,0.00,,,0.00,Weather View 32 v70,2013-11-14 12:29:00,
2013-11-14 07:39:00,42.5,39.5,30.34,West,265,3.0,5.0,89,0.00,,,0.00,Weather View 32 v70,2013-11-14 12:39:00,
2013-11-14 07:49:00,43.7,40.7,30.35,West,279,1.0,8.0,89,0.00,,,0.00,Weather View 32 v70,2013-11-14 12:49:00,
2013-11-14 07:59:00,44.6,41.6,30.35,West,272,2.0,8.0,89,0.00,,,0.00,Weather View 32 v70,2013-11-14 12:59:00,
2013-11-14 08:09:00,45.5,42.1,30.35,NNW,348,0.0,8.0,88,0.00,,,0.00,Weather View 32 v70,2013-11-14 13:09:00,
2013-11-14 08:19:00,46.2,42.2,30.35,West,277,1.0,8.0,86,0.00,,,0.00,Weather View 32 v70,2013-11-14 13:19:00,
2013-11-14 08:26:00,46.2,42.2,30.35,West,277,1.0,8.0,86,0.00,,,0.00,Weather View 32 v70,2013-11-14 13:26:00,
2013-11-14 08:29:00,47.5,43.2,30.35,North,360,0.0,8.0,85,0.00,,,0.00,Weather View 32 v70,2013-11-14 13:29:00,
2013-11-14 08:39:00,48.5,44.2,30.35,NNE,24,0.0,8.0,85,0.00,,,0.00,Weather View 32 v70,2013-11-14 13:39:00,
2013-11-14 08:49:00,49.9,44.9,30.35,NW,312,2.0,8.0,83,0.00,,,0.00,Weather View 32 v70,2013-11-14 13:49:00,
2013-11-14 09:00:00,50.7,45.7,30.35,NW,307,0.0,8.0,83,0.00,,,0.00,Weather View 32 v70,2013-11-14 14:00:00,
2013-11-14 09:09:00,52.1,46.4,30.35,North,350,1.0,8.0,81,0.00,,,0.00,Weather View 32 v70,2013-11-14 14:09:00,
2013-11-14 09:19:00,52.7,47.0,30.36,ENE,59,3.0,8.0,81,0.00,,,0.00,Weather View 32 v70,2013-11-14 14:19:00,
2013-11-14 09:27:00,52.7,47.0,30.36,ENE,59,3.0,8.0,81,0.00,,,0.00,Weather View 32 v70,2013-11-14 14:27:00,
2013-11-14 09:29:00,54.0,48.3,30.36,North,360,4.0,8.0,81,0.00,,,0.00,Weather View 32 v70,2013-11-14 14:29:00,
2013-11-14 09:39:00,55.4,49.3,30.37,NNE,28,5.0,8.0,80,0.00,,,0.00,Weather View 32 v70,2013-11-14 14:39:00,
2013-11-14 09:49:00,56.2,49.4,30.36,NW,306,0.0,8.0,78,0.00,,,0.00,Weather View 32 v70,2013-11-14 14:49:00,
2013-11-14 09:59:00,57.5,50.0,30.36,NNE,32,8.0,8.0,76,0.00,,,0.00,Weather View 32 v70,2013-11-14 14:59:00,
2013-11-14 10:09:00,58.3,51.5,30.37,NNW,338,3.0,9.0,78,0.00,,,0.00,Weather View 32 v70,2013-11-14 15:09:00,
2013-11-14 10:19:00,58.7,50.8,30.36,NNW,348,1.0,9.0,75,0.00,,,0.00,Weather View 32 v70,2013-11-14 15:19:00,
2013-11-14 10:28:00,58.7,50.8,30.36,NNW,348,1.0,9.0,75,0.00,,,0.00,Weather View 32 v70,2013-11-14 15:28:00,
2013-11-14 10:39:00,59.9,51.9,30.36,NNE,24,5.0,10.0,75,0.00,,,0.00,Weather View 32 v70,2013-11-14 15:39:00,
2013-11-14 10:49:00,60.5,51.8,30.35,NNE,25,6.0,10.0,73,0.00,,,0.00,Weather View 32 v70,2013-11-14 15:49:00,
2013-11-14 10:59:00,61.8,53.4,30.35,East,96,1.0,10.0,74,0.00,,,0.00,Weather View 32 v70,2013-11-14 15:59:00,
2013-11-14 11:09:00,62.5,53.7,30.35,NNE,22,0.0,10.0,73,0.00,,,0.00,Weather View 32 v70,2013-11-14 16:09:00,
2013-11-14 11:19:00,63.4,53.8,30.35,NNE,32,5.0,10.0,71,0.00,,,0.00,Weather View 32 v70,2013-11-14 16:19:00,
2013-11-14 11:29:00,63.4,53.8,30.35,NNE,32,5.0,10.0,71,0.00,,,0.00,Weather View 32 v70,2013-11-14 16:29:00,
2013-11-14 11:39:00,64.5,54.1,30.34,North,360,8.0,11.0,69,0.00,,,0.00,Weather View 32 v70,2013-11-14 16:39:00,
2013-11-14 11:49:00,64.9,55.2,30.33,North,9,6.0,11.0,71,0.00,,,0.00,Weather View 32 v70,2013-11-14 16:49:00,
2013-11-14 11:59:00,65.1,55.0,30.33,NE,38,4.0,11.0,70,0.00,,,0.00,Weather View 32 v70,2013-11-14 16:59:00,
2013-11-14 12:09:00,65.5,55.8,30.33,NNE,23,4.0,13.0,71,0.00,,,0.00,Weather View 32 v70,2013-11-14 17:09:00,
2013-11-14 12:19:00,66.0,55.9,30.31,North,351,6.0,13.0,70,0.00,,,0.00,Weather View 32 v70,2013-11-14 17:19:00,
2013-11-14 12:29:00,66.0,55.9,30.31,North,351,6.0,13.0,70,0.00,,,0.00,Weather View 32 v70,2013-11-14 17:29:00,
2013-11-14 12:40:00,67.1,57.0,30.30,NE,53,7.0,14.0,70,0.00,,,0.00,Weather View 32 v70,2013-11-14 17:40:00,
2013-11-14 12:51:00,67.9,56.9,30.29,NNE,31,7.0,14.0,68,0.00,,,0.00,Weather View 32 v70,2013-11-14 17:51:00,
2013-11-14 13:00:00,67.8,58.0,30.29,NNE,15,10.0,14.0,71,0.00,,,0.00,Weather View 32 v70,2013-11-14 18:00:00,
2013-11-14 13:09:00,68.5,58.7,30.28,NNE,12,1.0,14.0,71,0.00,,,0.00,Weather View 32 v70,2013-11-14 18:09:00,
2013-11-14 13:19:00,68.2,58.4,30.28,NNW,347,3.0,14.0,71,0.00,,,0.00,Weather View 32 v70,2013-11-14 18:19:00,
2013-11-14 13:30:00,68.3,58.9,30.27,NNW,348,3.0,14.0,72,0.00,,,0.00,Weather View 32 v70,2013-11-14 18:30:00,
2013-11-14 13:39:00,68.3,58.1,30.26,North,9,8.0,14.0,70,0.00,,,0.00,Weather View 32 v70,2013-11-14 18:39:00,
2013-11-14 13:49:00,68.6,59.6,30.27,NE,49,1.0,14.0,73,0.00,,,0.00,Weather View 32 v70,2013-11-14 18:49:00,
2013-11-14 13:59:00,68.1,59.1,30.27,North,10,1.0,14.0,73,0.00,,,0.00,Weather View 32 v70,2013-11-14 18:59:00,
2013-11-14 14:09:00,68.1,59.1,30.27,West,276,3.0,14.0,73,0.00,,,0.00,Weather View 32 v70,2013-11-14 19:09:00,
2013-11-14 14:19:00,68.1,59.5,30.27,NNE,19,4.0,13.0,74,0.00,,,0.00,Weather View 32 v70,2013-11-14 19:19:00,
2013-11-14 14:29:00,68.0,60.1,30.26,NNW,337,0.0,13.0,76,0.00,,,0.00,Weather View 32 v70,2013-11-14 19:29:00,
2013-11-14 14:39:00,67.1,59.3,30.26,NNE,28,7.0,13.0,76,0.00,,,0.00,Weather View 32 v70,2013-11-14 19:39:00,
2013-11-14 14:49:00,66.7,59.2,30.26,North,5,8.0,15.0,77,0.00,,,0.00,Weather View 32 v70,2013-11-14 19:49:00,
2013-11-14 14:59:00,66.7,59.6,30.25,NE,35,5.0,15.0,78,0.00,,,0.00,Weather View 32 v70,2013-11-14 19:59:00,
2013-11-14 15:09:00,66.7,59.6,30.26,NNE,20,0.0,15.0,78,0.00,,,0.00,Weather View 32 v70,2013-11-14 20:09:00,
2013-11-14 15:19:00,67.1,59.6,30.26,NE,38,4.0,15.0,77,0.00,,,0.00,Weather View 32 v70,2013-11-14 20:19:00,
2013-11-14 15:29:00,66.5,59.0,30.26,NNE,20,6.0,15.0,77,0.00,,,0.00,Weather View 32 v70,2013-11-14 20:29:00,
2013-11-14 15:39:00,66.4,59.3,30.26,NNE,16,7.0,15.0,78,0.00,,,0.00,Weather View 32 v70,2013-11-14 20:39:00,
2013-11-14 15:49:00,65.8,59.1,30.26,NNE,19,6.0,13.0,79,0.00,,,0.00,Weather View 32 v70,2013-11-14 20:49:00,
2013-11-14 15:59:00,65.6,59.2,30.25,North,355,4.0,13.0,80,0.00,,,0.00,Weather View 32 v70,2013-11-14 20:59:00,
2013-11-14 16:09:00,65.3,59.0,30.26,North,355,9.0,13.0,80,0.00,,,0.00,Weather View 32 v70,2013-11-14 21:09:00,
2013-11-14 16:19:00,64.6,59.0,30.26,NNE,25,6.0,13.0,82,0.00,,,0.00,Weather View 32 v70,2013-11-14 21:19:00,
2013-11-14 16:29:00,64.3,58.7,30.26,NNE,24,4.0,12.0,82,0.00,,,0.00,Weather View 32 v70,2013-11-14 21:29:00,
2013-11-14 16:32:00,64.3,58.7,30.26,NNE,24,4.0,12.0,82,0.00,,,0.00,Weather View 32 v70,2013-11-14 21:32:00,
2013-11-14 16:39:00,63.9,58.6,30.26,North,5,2.0,12.0,83,0.00,,,0.00,Weather View 32 v70,2013-11-14 21:39:00,
2013-11-14 16:49:00,63.6,58.7,30.26,NNE,18,5.0,12.0,84,0.00,,,0.00,Weather View 32 v70,2013-11-14 21:49:00,
2013-11-14 16:59:00,63.3,58.4,30.26,North,351,1.0,12.0,84,0.00,,,0.00,Weather View 32 v70,2013-11-14 21:59:00,
2013-11-14 17:09:00,63.0,58.4,30.26,North,5,6.0,12.0,85,0.00,,,0.00,Weather View 32 v70,2013-11-14 22:09:00,
2013-11-14 17:19:00,62.5,57.9,30.26,NNE,15,0.0,12.0,85,0.00,,,0.00,Weather View 32 v70,2013-11-14 22:19:00,
2013-11-14 17:29:00,62.2,57.9,30.26,North,355,6.0,11.0,86,0.00,,,0.00,Weather View 32 v70,2013-11-14 22:29:00,
2013-11-14 17:32:00,62.2,57.9,30.26,North,355,6.0,11.0,86,0.00,,,0.00,Weather View 32 v70,2013-11-14 22:32:00,
2013-11-14 17:39:00,61.9,58.0,30.26,NNE,15,4.0,10.0,87,0.00,,,0.00,Weather View 32 v70,2013-11-14 22:39:00,
2013-11-14 17:49:00,61.6,57.7,30.26,North,5,3.0,10.0,87,0.00,,,0.00,Weather View 32 v70,2013-11-14 22:49:00,
2013-11-14 17:59:00,61.2,57.6,30.25,NNE,29,0.0,10.0,88,0.00,,,0.00,Weather View 32 v70,2013-11-14 22:59:00,
2013-11-14 18:09:00,60.8,57.5,30.25,North,355,3.0,10.0,89,0.00,,,0.00,Weather View 32 v70,2013-11-14 23:09:00,
2013-11-14 18:19:00,60.6,57.3,30.25,North,5,0.0,9.0,89,0.00,,,0.00,Weather View 32 v70,2013-11-14 23:19:00,
2013-11-14 18:29:00,60.3,57.3,30.25,NNW,346,4.0,7.0,90,0.00,,,0.00,Weather View 32 v70,2013-11-14 23:29:00,
2013-11-14 18:33:00,60.3,57.3,30.25,NNW,346,4.0,7.0,90,0.00,,,0.00,Weather View 32 v70,2013-11-14 23:33:00,
2013-11-14 18:39:00,60.2,57.2,30.25,NNE,23,1.0,7.0,90,0.00,,,0.00,Weather View 32 v70,2013-11-14 23:39:00,
2013-11-14 18:49:00,60.3,57.3,30.25,North,360,0.0,7.0,90,0.00,,,0.00,Weather View 32 v70,2013-11-14 23:49:00,
2013-11-14 18:59:00,60.2,57.2,30.25,NNE,24,0.0,7.0,90,0.00,,,0.00,Weather View 32 v70,2013-11-14 23:59:00,
2013-11-14 19:09:00,60.1,57.5,30.26,NNE,28,0.0,7.0,91,0.00,,,0.00,Weather View 32 v70,2013-11-15 00:09:00,
2013-11-14 19:19:00,59.9,57.3,30.26,North,360,1.0,7.0,91,0.00,,,0.00,Weather View 32 v70,2013-11-15 00:19:00,
2013-11-14 19:29:00,59.8,57.2,30.25,North,360,2.0,7.0,91,0.00,,,0.00,Weather View 32 v70,2013-11-15 00:29:00,
2013-11-14 19:33:00,59.8,57.2,30.25,North,360,2.0,7.0,91,0.00,,,0.00,Weather View 32 v70,2013-11-15 00:33:00,
2013-11-14 19:39:00,59.7,57.4,30.24,NNW,347,3.0,7.0,92,0.00,,,0.00,Weather View 32 v70,2013-11-15 00:39:00,
2013-11-14 19:49:00,59.6,57.3,30.24,North,10,3.0,6.0,92,0.00,,,0.00,Weather View 32 v70,2013-11-15 00:49:00,
2013-11-14 19:59:00,59.4,57.1,30.24,NNW,348,3.0,6.0,92,0.00,,,0.00,Weather View 32 v70,2013-11-15 00:59:00,
2013-11-14 20:09:00,59.4,57.1,30.24,North,11,0.0,6.0,92,0.00,,,0.00,Weather View 32 v70,2013-11-15 01:09:00,
2013-11-14 20:19:00,59.3,57.3,30.24,North,5,2.0,6.0,93,0.00,,,0.00,Weather View 32 v70,2013-11-15 01:19:00,
2013-11-14 20:29:00,59.3,57.3,30.25,NNE,28,3.0,6.0,93,0.00,,,0.00,Weather View 32 v70,2013-11-15 01:29:00,
2013-11-14 20:34:00,59.3,57.3,30.25,NNE,28,3.0,6.0,93,0.00,,,0.00,Weather View 32 v70,2013-11-15 01:34:00,
2013-11-14 20:39:00,59.0,57.0,30.25,North,350,0.0,6.0,93,0.00,,,0.00,Weather View 32 v70,2013-11-15 01:39:00,
2013-11-14 20:49:00,58.8,57.1,30.25,North,360,0.0,5.0,94,0.00,,,0.00,Weather View 32 v70,2013-11-15 01:49:00,
2013-11-14 20:59:00,58.6,56.9,30.25,North,360,0.0,4.0,94,0.00,,,0.00,Weather View 32 v70,2013-11-15 01:59:00,
2013-11-14 21:09:00,58.5,56.8,30.24,NNE,20,0.0,4.0,94,0.00,,,0.00,Weather View 32 v70,2013-11-15 02:09:00,
2013-11-14 21:19:00,58.4,56.7,30.25,North,355,0.0,4.0,94,0.00,,,0.00,Weather View 32 v70,2013-11-15 02:19:00,
2013-11-14 21:29:00,58.2,56.5,30.25,North,9,0.0,5.0,94,0.00,,,0.00,Weather View 32 v70,2013-11-15 02:29:00,
2013-11-14 21:34:00,58.2,56.5,30.25,North,9,0.0,5.0,94,0.00,,,0.00,Weather View 32 v70,2013-11-15 02:34:00,
2013-11-14 21:39:00,58.2,56.5,30.24,NW,306,0.0,5.0,94,0.00,,,0.00,Weather View 32 v70,2013-11-15 02:39:00,
2013-11-14 21:49:00,57.8,56.1,30.25,WNW,300,0.0,5.0,94,0.00,,,0.00,Weather View 32 v70,2013-11-15 02:49:00,
2013-11-14 21:59:00,57.4,55.7,30.25,WNW,295,0.0,5.0,94,0.00,,,0.00,Weather View 32 v70,2013-11-15 02:59:00,
2013-11-14 22:09:00,57.0,55.6,30.24,WNW,295,0.0,5.0,95,0.00,,,0.00,Weather View 32 v70,2013-11-15 03:09:00,
2013-11-14 22:19:00,56.9,55.5,30.24,WNW,299,0.0,5.0,95,0.00,,,0.00,Weather View 32 v70,2013-11-15 03:19:00,
2013-11-14 22:29:00,56.6,55.2,30.23,WNW,299,0.0,2.0,95,0.00,,,0.00,Weather View 32 v70,2013-11-15 03:29:00,
2013-11-14 22:35:00,56.6,55.2,30.23,WNW,299,0.0,2.0,95,0.00,,,0.00,Weather View 32 v70,2013-11-15 03:35:00,
2013-11-14 22:39:00,56.4,55.0,30.24,WNW,295,0.0,3.0,95,0.00,,,0.00,Weather View 32 v70,2013-11-15 03:39:00,
2013-11-14 22:49:00,56.3,54.9,30.24,WNW,286,0.0,3.0,95,0.00,,,0.00,Weather View 32 v70,2013-11-15 03:49:00,
2013-11-14 22:59:00,55.9,54.5,30.24,WNW,286,0.0,3.0,95,0.00,,,0.00,Weather View 32 v70,2013-11-15 03:59:00,
2013-11-14 23:09:00,55.6,54.2,30.23,WNW,286,0.0,3.0,95,0.00,,,0.00,Weather View 32 v70,2013-11-15 04:09:00,
2013-11-14 23:19:00,55.5,54.4,30.22,NW,306,0.0,3.0,96,0.00,,,0.00,Weather View 32 v70,2013-11-15 04:19:00,
2013-11-14 23:29:00,55.6,54.5,30.22,NW,310,0.0,3.0,96,0.00,,,0.00,Weather View 32 v70,2013-11-15 04:29:00,
2013-11-14 23:35:00,55.6,54.5,30.22,NW,310,0.0,3.0,96,0.00,,,0.00,Weather View 32 v70,2013-11-15 04:35:00,
2013-11-14 23:49:00,54.9,53.8,30.22,NW,310,0.0,1.0,96,0.00,,,0.00,Weather View 32 v70,2013-11-15 04:49:00,
2013-11-14 23:59:00,54.9,53.8,30.21,NW,310,0.0,1.0,96,0.00,,,0.00,Weather View 32 v70,2013-11-15 04:59:00,